QPF
0.00 0.00 0.00 0.00 0.00 0.00 0.00 0.00 0.00 0.00 0.00 0.00 0.00 0.01 0.00 0.00 0.00 0.00 0.00 0.00 0.01 0.00 0.00 0.00 0.00 0.00 0.00 0.00 0.00 0.00 0.00 0.00 0.00 0.00 0.00 0.00 0.00 0.00 0.00 0.00 0.00 0.00 0.00
0.00 0.00 0.00 0.00 0.00 0.01 0.01 0.00 0.00 0.00 0.01 0.01 0.02 0.01 0.00 0.00 0.00 0.00 0.00 0.00 0.01 0.00 0.00 0.00 0.00 0.00 0.00 0.00 0.00 0.00 0.00 0.00 0.00 0.00 0.00 0.00 0.00 0.00 0.00 0.00 0.00 0.00 0.00
0.00 0.00 0.00 0.00 0.00 0.01 0.00 0.00 0.00 0.01 0.00 0.00 0.00 0.00 0.00 0.00 0.00 0.00 0.00 0.01 0.01 0.00 0.00 0.00 0.00 0.00 0.00 0.00 0.00 0.00 0.00 0.00 0.00 0.00 0.00 0.00 0.00 0.00 0.00 0.00 0.00 0.00 0.00
0.00 0.00 0.00 0.00 0.00 0.00 0.00 0.00 0.00 0.00 0.00 0.00 0.00 0.00 0.00 0.00 0.00 0.00 0.00 0.02 0.01 0.00 0.00 0.00 0.00 0.00 0.00 0.00 0.00 0.00 0.00 0.00 0.00 0.00 0.00 0.00 0.00 0.01 0.01 0.00 0.00 0.00 0.00
0.00 0.00 0.00 0.01 0.00 0.00 0.00 0.00 0.00 0.00 0.00 0.00 0.00 0.00 0.00 0.01 0.00 0.00 0.01 0.01 0.00 0.00 0.00 0.00 0.00 0.00 0.00 0.00 0.00 0.00 0.00 0.00 0.00 0.00 0.00 0.00 0.01 0.05 0.03 0.01 0.00 0.01 0.02
0.00 0.00 0.01 0.01 0.00 0.00 0.00 0.00 0.00 0.00 0.00 0.00 0.00 0.00 0.01 0.01 0.01 0.01 0.01 0.00 0.00 0.00 0.00 0.00 0.00 0.00 0.00 0.00 0.00 0.00 0.00 0.00 0.00 0.00 0.00 0.01 0.01 0.02 0.01 0.01 0.01 0.02 0.02
0.00 0.00 0.00 0.01 0.01 0.00 0.00 0.00 0.00 0.00 0.00 0.00 0.00 0.00 0.01 0.00 0.00 0.00 0.00 0.00 0.00 0.00 0.00 0.00 0.00 0.00 0.00 0.00 0.00 0.00 0.00 0.00 0.00 0.00 0.00 0.00 0.00 0.00 0.00 0.00 0.00 0.00 0.01
0.00 0.00 0.00 0.00 0.00 0.01 0.01 0.00 0.00 0.00 0.00 0.00 0.00 0.00 0.01 0.00 0.00 0.00 0.00 0.00 0.00 0.00 0.00 0.00 0.00 0.00 0.00 0.00 0.00 0.00 0.00 0.00 0.00 0.00 0.00 0.00 0.00 0.00 0.00 0.00 0.00 0.00 0.00
0.00 0.00 0.00 0.00 0.00 0.00 0.00 0.00 0.00 0.00 0.00 0.00 0.00 0.00 0.00 0.00 0.00 0.00 0.00 0.00 0.00 0.00 0.00 0.00 0.00 0.00 0.00 0.00 0.00 0.00 0.00 0.00 0.00 0.00 0.00 0.00 0.00 0.00 0.00 0.00 0.00 0.00 0.00
0.00 0.00 0.00 0.00 0.00 0.00 0.00 0.00 0.00 0.00 0.00 0.00 0.00 0.00 0.00 0.00 0.00 0.00 0.00 0.00 0.00 0.00 0.00 0.00 0.00 0.00 0.00 0.00 0.00 0.00 0.00 0.00 0.00 0.00 0.00 0.00 0.00 0.00 0.00 0.00 0.00 0.00 0.00
0.00 0.00 0.00 0.00 0.00 0.00 0.00 0.00 0.00 0.00 0.00 0.00 0.00 0.00 0.00 0.00 0.00 0.00 0.00 0.00 0.00 0.00 0.00 0.00 0.00 0.00 0.00 0.00 0.00 0.00 0.00 0.00 0.00 0.00 0.00 0.00 0.00 0.00 0.00 0.00 0.00 0.00 0.00
0.00 0.00 0.00 0.00 0.00 0.00 0.00 0.00 0.00 0.00 0.00 0.00 0.00 0.00 0.00 0.00 0.00 0.00 0.00 0.00 0.00 0.00 0.00 0.00 0.00 0.00 0.00 0.00 0.00 0.00 0.00 0.00 0.00 0.00 0.00 0.00 0.00 0.00 0.00 0.00 0.00 0.00 0.00
0.00 0.00 0.00 0.00 0.00 0.00 0.00 0.00 0.00 0.00 0.00 0.00 0.00 0.00 0.00 0.00 0.00 0.00 0.00 0.00 0.00 0.00 0.00 0.00 0.00 0.00 0.00 0.00 0.00 0.00 0.00 0.00 0.00 0.00 0.00 0.00 0.00 0.00 0.00 0.00 0.00 0.00 0.00
0.00 0.00 0.00 0.00 0.00 0.00 0.00 0.00 0.00 0.00 0.00 0.00 0.00 0.00 0.00 0.00 0.00 0.00 0.00 0.00 0.00 0.00 0.00 0.00 0.00 0.00 0.00 0.00 0.00 0.00 0.00 0.00 0.00 0.00 0.00 0.00 0.00 0.00 0.00 0.00 0.00 0.00 0.00
0.00 0.00 0.00 0.00 0.00 0.00 0.00 0.00 0.00 0.00 0.00 0.00 0.00 0.00 0.00 0.00 0.00 0.00 0.00 0.00 0.00 0.00 0.00 0.00 0.00 0.00 0.00 0.00 0.00 0.00 0.00 0.00 0.00 0.00 0.00 0.00 0.00 0.00 0.00 0.00 0.00 0.00 0.00
0.00 0.00 0.00 0.00 0.00 0.00 0.00 0.00 0.00 0.00 0.00 0.00 0.00 0.00 0.00 0.00 0.00 0.00 0.00 0.00 0.00 0.00 0.00 0.00 0.00 0.00 0.00 0.00 0.00 0.00 0.00 0.00 0.00 0.00 0.00 0.00 0.00 0.00 0.00 0.00 0.00 0.00 0.00
0.00 0.00 0.00 0.00 0.00 0.00 0.00 0.00 0.00 0.00 0.00 0.00 0.00 0.00 0.00 0.00 0.00 0.00 0.00 0.00 0.00 0.00 0.00 0.00 0.00 0.00 0.00 0.00 0.00 0.00 0.00 0.00 0.00 0.00 0.00 0.00 0.00 0.00 0.00 0.00 0.00 0.00 0.00
0.00 0.00 0.00 0.00 0.00 0.00 0.00 0.00 0.00 0.00 0.00 0.00 0.00 0.00 0.00 0.00 0.00 0.00 0.00 0.00 0.00 0.00 0.00 0.00 0.00 0.00 0.00 0.00 0.00 0.00 0.00 0.00 0.00 0.00 0.00 0.00 0.00 0.00 0.00 0.00 0.00 0.00 0.00
0.00 0.00 0.00 0.00 0.00 0.00 0.00 0.00 0.00 0.00 0.00 0.00 0.00 0.00 0.00 0.00 0.00 0.00 0.00 0.00 0.00 0.00 0.00 0.00 0.00 0.00 0.00 0.00 0.00 0.00 0.00 0.00 0.00 0.00 0.00 0.00 0.00 0.00 0.00 0.00 0.00 0.00 0.00
0.00 0.00 0.00 0.00 0.00 0.00 0.00 0.00 0.00 0.00 0.00 0.01 0.00 0.00 0.00 0.00 0.00 0.03 0.02 0.02 0.01 0.00 0.00 0.00 0.00 0.00 0.00 0.00 0.00 0.00 0.00 0.00 0.00 0.00 0.00 0.00 0.00 0.00 0.00 0.00 0.00 0.00 0.00
0.00 0.00 0.00 0.00 0.00 0.00 0.00 0.00 0.00 0.00 0.00 0.03 0.03 0.04 0.05 0.04 0.06 0.05 0.03 0.03 0.04 0.02 0.01 0.01 0.00 0.00 0.01 0.04 0.02 0.00 0.00 0.00 0.00 0.00 0.00 0.00 0.00 0.00 0.00 0.00 0.00 0.00 0.00
0.00 0.00 0.00 0.00 0.00 0.00 0.00 0.00 0.00 0.00 0.00 0.00 0.00 0.01 0.02 0.04 0.04 0.05 0.03 0.01 0.02 0.03 0.03 0.02 0.02 0.01 0.04 0.09 0.09 0.03 0.00 0.00 0.00 0.00 0.00 0.00 0.00 0.00 0.00 0.00 0.00 0.00 0.00
0.00 0.00 0.00 0.00 0.00 0.00 0.00 0.00 0.00 0.00 0.00 0.00 0.00 0.00 0.00 0.00 0.01 0.01 0.01 0.01 0.01 0.02 0.02 0.03 0.03 0.03 0.03 0.05 0.06 0.07 0.01 0.00 0.00 0.00 0.00 0.00 0.00 0.00 0.00 0.00 0.00 0.00 0.00
0.00 0.00 0.00 0.00 0.00 0.00 0.00 0.00 0.00 0.00 0.00 0.00 0.00 0.00 0.00 0.00 0.00 0.00 0.00 0.00 0.01 0.02 0.02 0.02 0.05 0.04 0.06 0.04 0.05 0.05 0.05 0.02 0.01 0.00 0.00 0.00 0.00 0.00 0.00 0.00 0.00 0.00 0.00
0.00 0.00 0.00 0.00 0.00 0.00 0.00 0.00 0.00 0.00 0.00 0.00 0.00 0.00 0.00 0.00 0.00 0.00 0.00 0.01 0.01 0.01 0.01 0.01 0.01 0.02 0.06 0.06 0.04 0.06 0.06 0.05 0.04 0.02 0.00 0.02 0.03 0.03 0.02 0.01 0.00 0.00 0.00
0.00 0.00 0.00 0.00 0.00 0.00 0.00 0.00 0.00 0.00 0.00 0.00 0.00 0.00 0.00 0.00 0.00 0.00 0.00 0.00 0.00 0.01 0.01 0.02 0.02 0.03 0.04 0.05 0.07 0.07 0.09 0.08 0.07 0.07 0.05 0.02 0.04 0.05 0.03 0.01 0.00 0.00 0.00
MSLP
1015.00 1014.93 1015.25 1015.58 1015.90 1016.15 1016.39 1016.54 1016.71 1016.87 1017.11 1017.18 1017.44 1017.67 1017.82 1018.01 1018.03 1018.06 1018.09 1018.20 1018.20 1018.26 1018.33 1018.37 1018.47 1018.46 1018.53 1018.66 1018.82 1018.90 1018.99 1019.02 1019.07 1019.20 1019.23 1019.20 1019.15 1018.99 1019.14 1019.18 1019.14 1019.13 1019.12
1014.52 1014.93 1015.27 1015.60 1015.93 1016.28 1016.51 1016.70 1016.83 1017.07 1017.11 1017.29 1017.51 1017.73 1018.09 1018.16 1018.26 1018.28 1018.29 1018.35 1018.40 1018.55 1018.68 1018.77 1018.87 1018.92 1018.96 1019.08 1019.20 1019.28 1019.35 1019.38 1019.44 1019.51 1019.55 1019.49 1019.38 1019.37 1019.41 1019.44 1019.46 1019.40 1019.38
1014.59 1014.97 1015.38 1015.74 1016.11 1016.40 1016.74 1016.91 1016.93 1017.09 1017.27 1017.57 1017.70 1018.06 1018.28 1018.37 1018.41 1018.42 1018.47 1018.49 1018.64 1018.82 1018.99 1019.10 1019.18 1019.26 1019.31 1019.37 1019.44 1019.52 1019.59 1019.67 1019.73 1019.79 1019.85 1019.84 1019.61 1019.48 1019.55 1019.60 1019.61 1019.58 1019.58
1014.47 1015.07 1015.52 1015.89 1016.27 1016.56 1016.89 1016.98 1017.09 1017.21 1017.64 1017.84 1018.06 1018.28 1018.38 1018.46 1018.55 1018.53 1018.58 1018.73 1018.91 1019.15 1019.34 1019.45 1019.54 1019.56 1019.59 1019.64 1019.71 1019.77 1019.81 1019.84 1019.83 1019.90 1020.02 1019.96 1019.80 1019.61 1019.66 1019.71 1019.65 1019.67 1019.65
1014.78 1015.20 1015.66 1016.04 1016.43 1016.70 1016.97 1017.17 1017.19 1017.58 1017.96 1018.14 1018.27 1018.36 1018.36 1018.37 1018.55 1018.69 1018.81 1019.00 1019.24 1019.41 1019.58 1019.70 1019.78 1019.78 1019.80 1019.88 1019.90 1019.93 1019.91 1019.84 1019.79 1019.95 1020.12 1020.17 1020.05 1019.63 1019.73 1019.84 1019.80 1019.72 1019.66
1015.11 1015.44 1015.63 1016.07 1016.53 1016.87 1017.13 1017.30 1017.52 1017.79 1018.09 1018.33 1018.44 1018.46 1018.33 1018.39 1018.46 1018.74 1019.08 1019.32 1019.48 1019.63 1019.75 1019.85 1019.92 1019.94 1019.94 1019.98 1020.01 1020.02 1020.04 1020.01 1020.18 1020.26 1020.28 1020.11 1020.09 1020.01 1020.12 1020.05 1020.05 1019.97 1019.86
1015.38 1015.61 1015.82 1016.21 1016.60 1016.94 1017.22 1017.49 1017.71 1017.95 1018.23 1018.45 1018.65 1018.59 1018.53 1018.66 1018.81 1019.02 1019.34 1019.52 1019.69 1019.80 1019.88 1019.96 1020.02 1020.04 1020.06 1020.04 1020.09 1020.19 1020.19 1020.22 1020.38 1020.39 1020.44 1020.35 1020.27 1020.34 1020.49 1020.50 1020.43 1020.37 1020.31
1015.34 1015.72 1015.97 1016.36 1016.67 1016.96 1017.18 1017.51 1017.75 1018.01 1018.26 1018.53 1018.79 1018.89 1018.90 1019.11 1019.18 1019.32 1019.53 1019.72 1019.81 1019.94 1020.01 1020.10 1020.14 1020.18 1020.18 1020.14 1020.22 1020.36 1020.35 1020.47 1020.59 1020.59 1020.63 1020.57 1020.48 1020.61 1020.74 1020.82 1020.80 1020.86 1020.63
1015.33 1015.82 1016.20 1016.46 1016.67 1016.95 1017.14 1017.39 1017.73 1018.10 1018.27 1018.58 1018.88 1019.01 1019.19 1019.41 1019.53 1019.61 1019.69 1019.78 1019.85 1019.98 1020.07 1020.13 1020.20 1020.28 1020.33 1020.33 1020.34 1020.47 1020.51 1020.59 1020.74 1020.77 1020.69 1020.74 1020.66 1020.65 1020.95 1020.97 1021.15 1021.18 1021.09
1015.78 1016.08 1016.43 1016.63 1016.74 1016.97 1017.19 1017.40 1017.74 1018.12 1018.37 1018.55 1018.89 1019.07 1019.23 1019.47 1019.62 1019.77 1019.91 1020.00 1020.08 1020.23 1020.30 1020.32 1020.35 1020.36 1020.37 1020.35 1020.32 1020.39 1020.63 1020.66 1020.82 1020.92 1020.87 1020.74 1020.57 1020.72 1020.97 1021.14 1021.26 1021.29 1021.27
1016.33 1016.37 1016.46 1016.68 1016.88 1017.10 1017.32 1017.58 1017.86 1018.08 1018.37 1018.61 1018.90 1019.18 1019.38 1019.62 1019.71 1019.83 1020.04 1020.18 1020.26 1020.41 1020.51 1020.58 1020.55 1020.53 1020.57 1020.51 1020.49 1020.49 1020.73 1020.82 1020.91 1021.01 1020.93 1020.83 1020.80 1020.87 1021.09 1021.18 1021.27 1021.44 1021.52
1016.65 1016.58 1016.46 1016.60 1016.82 1017.08 1017.22 1017.65 1017.96 1018.19 1018.46 1018.77 1019.05 1019.34 1019.57 1019.78 1019.92 1019.92 1019.98 1020.09 1020.26 1020.48 1020.62 1020.65 1020.62 1020.75 1020.89 1020.98 1020.89 1020.77 1020.93 1020.97 1020.95 1020.88 1020.86 1020.72 1020.81 1021.05 1021.21 1021.37 1021.40 1021.50 1021.59
1016.41 1016.56 1016.60 1016.54 1016.74 1017.02 1017.22 1017.63 1018.00 1018.22 1018.51 1018.79 1019.05 1019.34 1019.59 1019.80 1020.00 1020.12 1020.25 1020.29 1020.37 1020.38 1020.59 1020.68 1020.78 1020.90 1021.01 1021.10 1021.09 1021.07 1021.08 1021.05 1021.05 1021.02 1020.85 1020.73 1020.78 1020.82 1021.05 1021.40 1021.60 1021.69 1021.72
1016.26 1016.34 1016.45 1016.57 1016.83 1016.98 1017.12 1017.47 1017.79 1018.13 1018.42 1018.71 1018.87 1019.18 1019.55 1019.76 1019.95 1020.12 1020.26 1020.25 1020.32 1020.38 1020.59 1020.63 1020.83 1020.90 1020.99 1021.04 1021.07 1021.02 1021.00 1021.21 1021.19 1021.17 1021.07 1020.78 1020.72 1020.83 1020.99 1021.23 1021.63 1021.80 1021.79
1016.11 1016.16 1016.26 1016.37 1016.72 1016.93 1017.19 1017.35 1017.74 1017.97 1018.21 1018.37 1018.67 1018.88 1019.16 1019.47 1019.70 1019.88 1020.02 1020.14 1020.10 1020.22 1020.34 1020.56 1020.75 1020.74 1020.83 1020.88 1020.76 1020.84 1020.88 1021.01 1020.99 1020.94 1020.89 1020.87 1020.84 1020.81 1020.95 1021.16 1021.46 1021.75 1021.90
1015.56 1015.71 1015.94 1016.22 1016.24 1016.55 1017.00 1017.25 1017.42 1017.65 1017.78 1018.13 1018.27 1018.34 1018.64 1018.93 1019.23 1019.40 1019.59 1019.80 1019.86 1019.88 1020.00 1020.14 1020.32 1020.41 1020.48 1020.62 1020.67 1020.62 1020.59 1020.64 1020.85 1020.81 1020.76 1020.77 1020.71 1020.70 1020.86 1021.05 1021.24 1021.49 1021.81
1015.17 1015.25 1015.44 1015.61 1015.71 1016.20 1016.51 1016.83 1017.21 1017.17 1017.32 1017.60 1017.80 1017.90 1018.11 1018.40 1018.67 1018.87 1019.03 1019.32 1019.29 1019.36 1019.56 1019.83 1019.95 1020.03 1020.27 1020.26 1020.50 1020.36 1020.37 1020.30 1020.51 1020.54 1020.53 1020.45 1020.51 1020.59 1020.54 1020.62 1020.82 1021.21 1021.46
1015.21 1015.25 1015.06 1015.39 1015.66 1015.96 1016.16 1016.22 1016.57 1016.85 1016.96 1017.06 1017.25 1017.42 1017.49 1017.59 1017.97 1018.30 1018.49 1018.66 1018.68 1018.97 1019.18 1019.50 1019.71 1019.86 1020.01 1020.14 1020.19 1020.09 1020.08 1020.10 1020.08 1020.25 1020.34 1020.42 1020.50 1020.52 1020.55 1020.50 1020.63 1020.74 1021.10
1014.98 1015.20 1015.34 1015.30 1015.43 1015.64 1015.82 1016.06 1016.18 1016.29 1016.60 1016.57 1016.66 1016.80 1016.93 1016.96 1017.18 1017.50 1017.71 1017.79 1018.14 1018.42 1018.67 1019.01 1019.31 1019.52 1019.72 1019.79 1019.94 1019.99 1020.02 1020.00 1019.93 1019.99 1020.27 1020.39 1020.39 1020.41 1020.38 1020.38 1020.43 1020.62 1020.82
1015.38 1015.29 1015.41 1015.56 1015.65 1015.73 1015.83 1016.06 1016.17 1016.29 1016.30 1016.30 1016.23 1016.31 1016.42 1016.53 1016.69 1017.10 1017.24 1017.36 1017.65 1018.02 1018.21 1018.47 1018.68 1019.03 1019.26 1019.18 1019.50 1019.67 1019.71 1019.77 1019.68 1019.70 1019.69 1019.82 1019.95 1020.09 1020.20 1020.30 1020.28 1020.42 1020.57
1016.01 1016.10 1015.99 1016.02 1016.02 1015.96 1016.10 1016.31 1016.35 1016.37 1016.21 1016.13 1016.03 1016.02 1016.23 1016.35 1016.53 1016.83 1017.16 1017.36 1017.56 1017.82 1017.79 1017.95 1018.22 1018.62 1018.93 1019.22 1019.72 1019.82 1019.76 1019.40 1019.40 1019.24 1019.35 1019.29 1019.26 1019.49 1019.80 1019.86 1020.05 1020.24 1020.35
1016.32 1016.32 1016.44 1016.64 1016.54 1016.28 1016.17 1016.18 1016.23 1016.28 1016.15 1016.01 1015.85 1015.96 1016.12 1016.27 1016.36 1016.51 1016.70 1016.91 1017.10 1017.37 1017.57 1017.67 1017.90 1018.29 1018.46 1018.74 1019.54 1020.26 1019.96 1019.43 1018.98 1018.56 1018.69 1018.86 1018.80 1018.72 1018.89 1019.32 1019.61 1019.82 1020.08
1016.64 1016.66 1016.59 1016.48 1016.43 1016.52 1016.57 1016.54 1016.51 1016.40 1016.33 1016.21 1016.08 1015.98 1015.82 1015.85 1015.96 1016.09 1016.10 1016.31 1016.63 1016.85 1016.97 1017.23 1017.51 1017.68 1017.88 1018.35 1018.43 1019.10 1019.76 1019.33 1019.05 1018.23 1017.93 1017.96 1018.09 1018.34 1018.28 1018.52 1018.90 1019.20 1019.59
1016.77 1016.78 1016.68 1016.63 1016.57 1016.54 1016.47 1016.56 1016.70 1016.74 1016.87 1016.63 1016.47 1016.30 1016.02 1015.74 1015.67 1015.62 1015.72 1015.87 1016.07 1016.23 1016.46 1016.46 1016.63 1016.99 1017.50 1017.81 1018.37 1018.39 1018.56 1018.71 1018.91 1018.58 1018.09 1017.85 1018.00 1018.27 1018.46 1018.58 1018.62 1018.91 1019.19
1016.89 1017.02 1016.98 1016.87 1016.88 1016.80 1016.64 1016.61 1016.74 1016.92 1017.02 1016.78 1016.70 1016.61 1016.37 1016.02 1015.72 1015.55 1015.41 1015.37 1015.73 1015.78 1015.81 1015.94 1016.19 1016.49 1016.71 1017.04 1017.42 1017.68 1017.89 1018.18 1018.40 1018.48 1017.92 1017.70 1017.66 1017.51 1017.74 1017.91 1017.87 1018.14 1018.53
1017.08 1017.09 1017.15 1017.18 1017.33 1017.22 1017.11 1017.04 1017.02 1017.12 1017.12 1017.08 1016.99 1016.82 1016.65 1016.37 1016.22 1016.07 1015.62 1015.28 1015.10 1015.35 1015.30 1015.35 1015.53 1015.81 1015.98 1016.19 1016.43 1016.79 1017.06 1017.04 1016.97 1017.48 1017.89 1017.53 1018.13 1017.90 1017.80 1017.49 1017.14 1017.35 1017.70
Thickness
5763 5764 5763 5760 5758 5756 5754 5753 5753 5752 5751 5750 5747 5745 5744 5742 5741 5741 5741 5739 5739 5738 5736 5735 5733 5732 5731 5729 5728 5726 5725 5723 5722 5720 5719 5717 5716 5715 5713 5712 5711 5709 5709
5766 5763 5761 5759 5756 5753 5752 5751 5751 5749 5750 5747 5745 5743 5740 5739 5738 5738 5738 5737 5736 5734 5732 5730 5728 5727 5726 5724 5723 5721 5720 5718 5717 5715 5714 5713 5712 5710 5709 5707 5706 5705 5704
5763 5760 5758 5756 5753 5751 5749 5748 5749 5748 5747 5744 5744 5740 5738 5737 5736 5736 5735 5734 5732 5730 5727 5725 5724 5723 5722 5721 5719 5717 5715 5713 5712 5711 5709 5709 5709 5708 5706 5704 5703 5701 5700
5762 5757 5755 5752 5750 5748 5746 5746 5747 5747 5744 5742 5739 5737 5736 5735 5734 5733 5732 5730 5728 5725 5723 5721 5719 5718 5717 5716 5714 5713 5711 5709 5708 5707 5705 5704 5704 5704 5702 5701 5700 5698 5697
5757 5755 5751 5749 5747 5746 5745 5743 5745 5742 5739 5738 5736 5735 5735 5734 5732 5730 5728 5726 5723 5721 5719 5717 5715 5714 5713 5711 5710 5708 5708 5707 5705 5704 5702 5701 5700 5701 5699 5697 5696 5695 5695
5752 5751 5749 5747 5744 5743 5743 5742 5741 5739 5737 5735 5733 5732 5733 5732 5731 5728 5724 5722 5720 5718 5716 5714 5712 5711 5710 5707 5706 5704 5703 5703 5702 5699 5697 5697 5696 5695 5692 5692 5691 5690 5690
5748 5747 5746 5744 5743 5741 5741 5740 5738 5736 5733 5731 5729 5729 5730 5728 5726 5723 5720 5718 5715 5713 5712 5711 5709 5708 5706 5705 5703 5700 5699 5698 5696 5696 5694 5693 5691 5689 5687 5685 5684 5684 5683
5745 5743 5743 5741 5740 5739 5738 5737 5736 5734 5732 5728 5726 5724 5724 5722 5720 5719 5716 5714 5712 5710 5708 5706 5705 5704 5702 5701 5700 5697 5696 5693 5691 5690 5689 5687 5686 5683 5681 5679 5678 5676 5677
5741 5739 5738 5738 5738 5737 5737 5735 5733 5730 5729 5727 5724 5722 5719 5717 5716 5714 5713 5711 5709 5706 5704 5703 5701 5700 5698 5697 5696 5694 5691 5690 5688 5686 5685 5682 5680 5679 5675 5674 5671 5670 5670
5735 5734 5734 5735 5736 5736 5734 5732 5730 5727 5726 5724 5721 5719 5717 5714 5713 5711 5709 5706 5704 5701 5699 5698 5697 5696 5695 5694 5693 5691 5688 5686 5684 5681 5680 5679 5678 5674 5671 5669 5667 5666 5665
5729 5731 5732 5733 5733 5732 5730 5728 5727 5725 5722 5720 5718 5716 5714 5712 5710 5707 5704 5701 5699 5696 5694 5693 5692 5692 5690 5690 5688 5687 5684 5682 5679 5677 5676 5674 5672 5670 5666 5665 5663 5660 5659
5721 5725 5729 5729 5729 5728 5726 5725 5723 5722 5719 5716 5714 5711 5710 5708 5706 5704 5701 5698 5695 5692 5690 5689 5689 5686 5684 5683 5683 5681 5680 5678 5676 5675 5673 5671 5668 5664 5662 5660 5658 5656 5655
5720 5721 5723 5725 5726 5725 5724 5722 5720 5719 5716 5713 5710 5708 5706 5704 5701 5699 5697 5694 5692 5690 5688 5685 5683 5682 5680 5678 5677 5676 5674 5673 5672 5669 5667 5666 5664 5663 5660 5656 5653 5651 5649
5717 5719 5719 5720 5720 5721 5721 5720 5718 5715 5713 5710 5708 5706 5703 5701 5698 5695 5693 5691 5689 5687 5684 5683 5681 5680 5677 5675 5673 5672 5670 5667 5666 5664 5662 5661 5660 5658 5655 5652 5647 5645 5644
5714 5716 5717 5718 5718 5716 5716 5716 5714 5712 5709 5708 5705 5703 5701 5698 5695 5692 5690 5688 5687 5685 5683 5680 5677 5677 5675 5672 5672 5669 5666 5664 5664 5662 5660 5657 5654 5652 5650 5647 5643 5639 5637
5713 5715 5717 5716 5717 5716 5714 5712 5711 5709 5709 5706 5703 5702 5699 5697 5694 5691 5688 5685 5685 5684 5682 5679 5676 5674 5672 5669 5667 5665 5664 5661 5660 5658 5656 5653 5651 5649 5645 5642 5639 5635 5632
5710 5713 5714 5716 5716 5716 5714 5712 5710 5708 5706 5705 5703 5701 5698 5696 5693 5691 5688 5685 5684 5683 5680 5676 5673 5670 5667 5665 5662 5661 5659 5658 5656 5654 5652 5651 5647 5643 5642 5640 5637 5633 5629
5704 5707 5712 5714 5713 5712 5711 5711 5708 5706 5705 5704 5701 5700 5698 5696 5693 5690 5688 5686 5684 5680 5676 5672 5668 5665 5662 5659 5657 5654 5653 5652 5652 5649 5646 5643 5640 5638 5635 5633 5631 5629 5625
5700 5701 5703 5706 5708 5708 5707 5704 5704 5704 5703 5703 5702 5700 5697 5697 5694 5692 5689 5686 5682 5678 5674 5670 5666 5662 5658 5655 5651 5649 5647 5646 5644 5642 5638 5635 5633 5631 5629 5626 5624 5622 5619
5690 5694 5696 5697 5697 5699 5700 5699 5699 5699 5699 5699 5699 5699 5695 5693 5690 5687 5684 5681 5677 5674 5671 5666 5663 5657 5654 5652 5647 5643 5640 5638 5637 5636 5634 5629 5627 5624 5622 5619 5617 5614 5611
5677 5681 5685 5688 5688 5688 5687 5688 5690 5691 5692 5693 5694 5692 5689 5688 5685 5683 5679 5675 5671 5667 5665 5661 5656 5651 5647 5641 5634 5633 5631 5631 5630 5630 5625 5623 5622 5618 5615 5613 5610 5607 5604
5669 5671 5672 5672 5676 5681 5683 5683 5684 5684 5685 5686 5685 5684 5682 5681 5679 5676 5674 5672 5669 5664 5659 5656 5651 5646 5642 5636 5626 5616 5621 5625 5625 5624 5619 5617 5616 5613 5611 5607 5604 5602 5598
5659 5660 5664 5667 5669 5671 5673 5675 5676 5677 5678 5678 5678 5677 5677 5675 5673 5670 5669 5667 5663 5659 5656 5651 5646 5642 5639 5631 5626 5616 5603 5612 5611 5618 5615 5612 5609 5605 5604 5601 5597 5594 5591
5650 5653 5655 5659 5661 5663 5665 5665 5665 5664 5664 5666 5667 5668 5669 5668 5667 5664 5661 5658 5656 5654 5650 5648 5644 5637 5630 5626 5615 5611 5605 5601 5597 5600 5602 5599 5595 5592 5591 5588 5586 5582 5580
5641 5643 5645 5648 5651 5653 5655 5656 5657 5656 5654 5656 5657 5658 5658 5659 5659 5658 5656 5654 5650 5647 5646 5642 5637 5631 5626 5620 5612 5604 5600 5592 5587 5583 5595 5588 5584 5584 5581 5577 5578 5575 5572
5631 5634 5636 5638 5639 5641 5642 5644 5645 5645 5646 5646 5646 5646 5646 5648 5647 5647 5647 5647 5645 5643 5641 5638 5634 5628 5623 5617 5610 5604 5597 5591 5587 5575 5565 5571 5560 5560 5560 5564 5569 5568 5565